Year,Month,Day,Hour,Minute,Value (Times are PST for temperature in C)
2009,07,23,00,00,19.10
2009,07,23,00,01,19.10
2009,07,23,00,02,19.10
2009,07,23,00,03,19.10
2009,07,23,00,04,19.10
2009,07,23,00,05,19.10
2009,07,23,00,06,19.10
2009,07,23,00,07,19.10
2009,07,23,00,08,19.00
2009,07,23,00,09,19.00
2009,07,23,00,10,19.00
2009,07,23,00,11,19.00
2009,07,23,00,12,19.00
2009,07,23,00,13,19.00
2009,07,23,00,14,18.90
2009,07,23,00,15,18.90
2009,07,23,00,16,18.90
2009,07,23,00,17,18.90
2009,07,23,00,18,18.90
2009,07,23,00,19,18.80
2009,07,23,00,20,18.80
2009,07,23,00,21,18.80
2009,07,23,00,22,18.80
2009,07,23,00,23,18.80
2009,07,23,00,24,18.80
2009,07,23,00,25,18.80
2009,07,23,00,26,18.80
2009,07,23,00,27,18.80
2009,07,23,00,28,18.80
2009,07,23,00,29,18.70
2009,07,23,00,30,18.70
2009,07,23,00,31,18.70
2009,07,23,00,32,18.70
2009,07,23,00,33,18.70
2009,07,23,00,34,18.70
2009,07,23,00,35,18.70
2009,07,23,00,36,18.60
2009,07,23,00,37,18.60
2009,07,23,00,38,18.60
2009,07,23,00,39,18.60
2009,07,23,00,40,18.60
2009,07,23,00,41,18.50
2009,07,23,00,42,18.50
2009,07,23,00,43,18.50
2009,07,23,00,44,18.50
2009,07,23,00,45,18.40
2009,07,23,00,46,18.40
2009,07,23,00,47,18.40
2009,07,23,00,48,18.40
2009,07,23,00,49,18.40
2009,07,23,00,50,18.40
2009,07,23,00,51,18.40
2009,07,23,00,52,18.30
2009,07,23,00,53,18.30
2009,07,23,00,54,18.30
2009,07,23,00,55,18.30
2009,07,23,00,56,18.30
2009,07,23,00,57,18.20
2009,07,23,00,58,18.20
2009,07,23,00,59,18.20
2009,07,23,01,00,18.20
2009,07,23,01,01,18.20
2009,07,23,01,02,18.20
2009,07,23,01,03,18.20
2009,07,23,01,04,18.20
2009,07,23,01,05,18.10
2009,07,23,01,06,18.10
2009,07,23,01,07,18.10
2009,07,23,01,08,18.10
2009,07,23,01,09,18.00
2009,07,23,01,10,18.00
2009,07,23,01,11,18.00
2009,07,23,01,12,17.90
2009,07,23,01,13,17.90
2009,07,23,01,14,17.90
2009,07,23,01,15,17.90
2009,07,23,01,16,17.90
2009,07,23,01,17,17.90
2009,07,23,01,18,17.90
2009,07,23,01,19,17.90
2009,07,23,01,20,17.80
2009,07,23,01,21,17.80
2009,07,23,01,22,17.80
2009,07,23,01,23,17.80
2009,07,23,01,24,17.80
2009,07,23,01,25,17.80
2009,07,23,01,26,17.80
2009,07,23,01,27,17.80
2009,07,23,01,28,17.70
2009,07,23,01,29,17.70
2009,07,23,01,30,17.70
2009,07,23,01,31,17.70
2009,07,23,01,32,17.60
2009,07,23,01,33,17.60
2009,07,23,01,34,17.50
2009,07,23,01,35,17.50
2009,07,23,01,36,17.40
2009,07,23,01,37,17.40
2009,07,23,01,38,17.30
2009,07,23,01,39,17.30
2009,07,23,01,40,17.30
2009,07,23,01,41,17.30
2009,07,23,01,42,17.30
2009,07,23,01,43,17.20
2009,07,23,01,44,17.20
2009,07,23,01,45,17.20
2009,07,23,01,46,17.20
2009,07,23,01,47,17.10
2009,07,23,01,48,17.10
2009,07,23,01,49,17.10
2009,07,23,01,50,17.10
2009,07,23,01,51,17.00
2009,07,23,01,52,17.00
2009,07,23,01,53,17.00
2009,07,23,01,54,17.00
2009,07,23,01,55,17.00
2009,07,23,01,56,17.00
2009,07,23,01,57,17.00
2009,07,23,01,58,17.00
2009,07,23,01,59,17.00
2009,07,23,02,00,17.00
2009,07,23,02,01,16.90
2009,07,23,02,02,16.90
2009,07,23,02,03,16.90
2009,07,23,02,04,16.90
2009,07,23,02,05,16.90
2009,07,23,02,06,17.00
2009,07,23,02,07,17.00
2009,07,23,02,08,17.10
2009,07,23,02,09,17.10
2009,07,23,02,10,17.10
2009,07,23,02,11,17.10
2009,07,23,02,12,17.10
2009,07,23,02,13,17.10
2009,07,23,02,14,17.10
2009,07,23,02,15,17.10
2009,07,23,02,16,17.10
2009,07,23,02,17,17.10
2009,07,23,02,18,17.10
2009,07,23,02,19,17.10
2009,07,23,02,20,17.00
2009,07,23,02,21,17.00
2009,07,23,02,22,17.00
2009,07,23,02,23,17.00
2009,07,23,02,24,17.00
2009,07,23,02,25,17.00
2009,07,23,02,26,17.00
2009,07,23,02,27,16.90
2009,07,23,02,28,16.90
2009,07,23,02,29,16.90
2009,07,23,02,30,16.90
2009,07,23,02,31,16.90
2009,07,23,02,32,16.90
2009,07,23,02,33,16.90
2009,07,23,02,34,16.90
2009,07,23,02,35,16.90
2009,07,23,02,36,16.90
2009,07,23,02,37,16.90
2009,07,23,02,38,16.90
2009,07,23,02,39,16.80
2009,07,23,02,40,16.80
2009,07,23,02,41,16.80
2009,07,23,02,42,16.80
2009,07,23,02,43,16.80
2009,07,23,02,44,16.80
2009,07,23,02,45,16.80
2009,07,23,02,46,16.80
2009,07,23,02,47,16.80
2009,07,23,02,48,16.80
2009,07,23,02,49,16.80
2009,07,23,02,50,16.70
2009,07,23,02,51,16.70
2009,07,23,02,52,16.70
2009,07,23,02,53,16.70
2009,07,23,02,54,16.70
2009,07,23,02,55,16.70
2009,07,23,02,56,16.70
2009,07,23,02,57,16.70
2009,07,23,02,58,16.70
2009,07,23,02,59,16.70
2009,07,23,03,00,16.70
2009,07,23,03,01,16.70
2009,07,23,03,02,16.70
2009,07,23,03,03,16.70
2009,07,23,03,04,16.70
2009,07,23,03,05,16.70
2009,07,23,03,06,16.70
2009,07,23,03,07,16.70
2009,07,23,03,08,16.70
2009,07,23,03,09,16.70
2009,07,23,03,10,16.70
2009,07,23,03,11,16.70
2009,07,23,03,12,16.70
2009,07,23,03,13,16.70
2009,07,23,03,14,16.70
2009,07,23,03,15,16.70
2009,07,23,03,16,16.70
2009,07,23,03,17,16.70
2009,07,23,03,18,16.60
2009,07,23,03,19,16.60
2009,07,23,03,20,16.70
2009,07,23,03,21,16.70
2009,07,23,03,22,16.70
2009,07,23,03,23,16.70
2009,07,23,03,24,16.70
2009,07,23,03,25,16.70
2009,07,23,03,26,16.70
2009,07,23,03,27,16.70
2009,07,23,03,28,16.70
2009,07,23,03,29,16.70
2009,07,23,03,30,16.70
2009,07,23,03,31,16.70
2009,07,23,03,32,16.60
2009,07,23,03,33,16.60
2009,07,23,03,34,16.60
2009,07,23,03,35,16.60
2009,07,23,03,36,16.60
2009,07,23,03,37,16.60
2009,07,23,03,38,16.60
2009,07,23,03,39,16.50
2009,07,23,03,40,16.50
2009,07,23,03,41,16.50
2009,07,23,03,42,16.50
2009,07,23,03,43,16.50
2009,07,23,03,44,16.40
2009,07,23,03,45,16.40
2009,07,23,03,46,16.40
2009,07,23,03,47,16.40
2009,07,23,03,48,16.40
2009,07,23,03,49,16.40
2009,07,23,03,50,16.40
2009,07,23,03,51,16.40
2009,07,23,03,52,16.40
2009,07,23,03,53,16.40
2009,07,23,03,54,16.40
2009,07,23,03,55,16.40
2009,07,23,03,56,16.30
2009,07,23,03,57,16.30
2009,07,23,03,58,16.30
2009,07,23,03,59,16.30
2009,07,23,04,00,16.30
2009,07,23,04,01,16.30
2009,07,23,04,02,16.30
2009,07,23,04,03,16.30
2009,07,23,04,04,16.30
2009,07,23,04,05,16.20
2009,07,23,04,06,16.20
2009,07,23,04,07,16.20
2009,07,23,04,08,16.20
2009,07,23,04,09,16.20
2009,07,23,04,10,16.20
2009,07,23,04,11,16.20
2009,07,23,04,12,16.20
2009,07,23,04,13,16.20
2009,07,23,04,14,16.20
2009,07,23,04,15,16.20
2009,07,23,04,16,16.20
2009,07,23,04,17,16.20
2009,07,23,04,18,16.10
2009,07,23,04,19,16.10
2009,07,23,04,20,16.10
2009,07,23,04,21,16.10
2009,07,23,04,22,16.10
2009,07,23,04,23,16.10
2009,07,23,04,24,16.10
2009,07,23,04,25,16.10
2009,07,23,04,26,16.10
2009,07,23,04,27,16.00
2009,07,23,04,28,16.00
2009,07,23,04,29,16.00
2009,07,23,04,30,16.00
2009,07,23,04,31,16.00
2009,07,23,04,32,15.90
2009,07,23,04,33,15.90
2009,07,23,04,34,15.90
2009,07,23,04,35,15.90
2009,07,23,04,36,15.90
2009,07,23,04,37,15.90
2009,07,23,04,38,15.80
2009,07,23,04,39,15.80
2009,07,23,04,40,15.80
2009,07,23,04,41,15.70
2009,07,23,04,42,15.70
2009,07,23,04,43,15.70
2009,07,23,04,44,15.60
2009,07,23,04,45,15.60
2009,07,23,04,46,15.50
2009,07,23,04,47,15.50
2009,07,23,04,48,15.40
2009,07,23,04,49,15.40
2009,07,23,04,50,15.40
2009,07,23,04,51,15.30
2009,07,23,04,52,15.20
2009,07,23,04,53,15.10
2009,07,23,04,54,15.00
2009,07,23,04,55,15.00
2009,07,23,04,56,15.00
2009,07,23,04,57,15.00
2009,07,23,04,58,14.90
2009,07,23,04,59,14.90
2009,07,23,05,00,14.80
2009,07,23,05,01,14.80
2009,07,23,05,02,14.70
2009,07,23,05,03,14.60
2009,07,23,05,04,14.60
2009,07,23,05,05,14.60
2009,07,23,05,06,14.60
2009,07,23,05,07,14.50
2009,07,23,05,08,14.50
2009,07,23,05,09,14.40
2009,07,23,05,10,14.40
2009,07,23,05,11,14.40
2009,07,23,05,12,14.40
2009,07,23,05,13,14.40
2009,07,23,05,14,14.40
2009,07,23,05,15,14.50
2009,07,23,05,16,14.50
2009,07,23,05,17,14.40
2009,07,23,05,18,14.40
2009,07,23,05,19,14.40
2009,07,23,05,20,14.40
2009,07,23,05,21,14.50
2009,07,23,05,22,14.60
2009,07,23,05,23,14.70
2009,07,23,05,24,14.70
2009,07,23,05,25,14.70
2009,07,23,05,26,14.80
2009,07,23,05,27,14.80
2009,07,23,05,28,14.90
2009,07,23,05,29,14.90
2009,07,23,05,30,15.00
2009,07,23,05,31,15.00
2009,07,23,05,32,15.00
2009,07,23,05,33,15.00
2009,07,23,05,34,15.00
2009,07,23,05,35,15.00
2009,07,23,05,36,15.00
2009,07,23,05,37,15.00
2009,07,23,05,38,15.00
2009,07,23,05,39,15.00
2009,07,23,05,40,15.00
2009,07,23,05,41,15.10
2009,07,23,05,42,15.20
2009,07,23,05,43,15.20
2009,07,23,05,44,15.20
2009,07,23,05,45,15.20
2009,07,23,05,46,15.20
2009,07,23,05,47,15.20
2009,07,23,05,48,15.30
2009,07,23,05,49,15.30
2009,07,23,05,50,15.30
2009,07,23,05,51,15.20
2009,07,23,05,52,15.30
2009,07,23,05,53,15.30
2009,07,23,05,54,15.30
2009,07,23,05,55,15.20
2009,07,23,05,56,15.20
2009,07,23,05,57,15.20
2009,07,23,05,58,15.20
2009,07,23,05,59,15.20
2009,07,23,06,00,15.10
2009,07,23,06,01,15.10
2009,07,23,06,02,15.00
2009,07,23,06,03,15.00
2009,07,23,06,04,15.00
2009,07,23,06,05,15.00
2009,07,23,06,06,15.00
2009,07,23,06,07,15.00
2009,07,23,06,08,14.90
2009,07,23,06,09,14.80
2009,07,23,06,10,14.70
2009,07,23,06,11,14.60
2009,07,23,06,12,14.50
2009,07,23,06,13,14.50
2009,07,23,06,14,14.40
2009,07,23,06,15,14.30
2009,07,23,06,16,14.20
2009,07,23,06,17,14.20
2009,07,23,06,18,14.10
2009,07,23,06,19,14.10
2009,07,23,06,20,14.10
2009,07,23,06,21,14.00
2009,07,23,06,22,14.00
2009,07,23,06,23,14.00
2009,07,23,06,24,14.00
2009,07,23,06,25,14.00
2009,07,23,06,26,13.90
2009,07,23,06,27,13.90
2009,07,23,06,28,13.90
2009,07,23,06,29,13.90
2009,07,23,06,30,13.90
2009,07,23,06,31,13.90
2009,07,23,06,32,13.90
2009,07,23,06,33,13.90
2009,07,23,06,34,13.90
2009,07,23,06,35,13.80
2009,07,23,06,36,13.80
2009,07,23,06,37,13.80
2009,07,23,06,38,13.80
2009,07,23,06,39,13.90
2009,07,23,06,40,13.90
2009,07,23,06,41,13.90
2009,07,23,06,42,14.00
2009,07,23,06,43,14.00
2009,07,23,06,44,14.00
2009,07,23,06,45,14.00
2009,07,23,06,46,14.00
2009,07,23,06,47,14.10
2009,07,23,06,48,14.10
2009,07,23,06,49,14.20
2009,07,23,06,50,14.30
2009,07,23,06,51,14.30
2009,07,23,06,52,14.40
2009,07,23,06,53,14.40
2009,07,23,06,54,14.50
2009,07,23,06,55,14.50
2009,07,23,06,56,14.60
2009,07,23,06,57,14.60
2009,07,23,06,58,14.70
2009,07,23,06,59,14.70
2009,07,23,07,00,14.80
2009,07,23,07,01,14.90
2009,07,23,07,02,15.00
2009,07,23,07,03,15.00
2009,07,23,07,04,15.00
2009,07,23,07,05,15.00
2009,07,23,07,06,15.10
2009,07,23,07,07,15.20
2009,07,23,07,08,15.30
2009,07,23,07,09,15.30
2009,07,23,07,10,15.40
2009,07,23,07,11,15.50
2009,07,23,07,12,15.50
2009,07,23,07,13,15.60
2009,07,23,07,14,15.60
2009,07,23,07,15,15.70
2009,07,23,07,16,15.70
2009,07,23,07,17,15.70
2009,07,23,07,18,15.80
2009,07,23,07,19,15.80
2009,07,23,07,20,15.80
2009,07,23,07,21,15.90
2009,07,23,07,22,15.90
2009,07,23,07,23,15.90
2009,07,23,07,24,15.80
2009,07,23,07,25,15.80
2009,07,23,07,26,15.90
2009,07,23,07,27,15.90
2009,07,23,07,28,15.90
2009,07,23,07,29,15.90
2009,07,23,07,30,16.00
2009,07,23,07,31,16.00
2009,07,23,07,32,16.10
2009,07,23,07,33,16.10
2009,07,23,07,34,16.20
2009,07,23,07,35,16.30
2009,07,23,07,36,16.30
2009,07,23,07,37,16.40
2009,07,23,07,38,16.40
2009,07,23,07,39,16.50
2009,07,23,07,40,16.60
2009,07,23,07,41,16.60
2009,07,23,07,42,16.70
2009,07,23,07,43,16.70
2009,07,23,07,44,16.80
2009,07,23,07,45,16.80
2009,07,23,07,46,16.80
2009,07,23,07,47,16.90
2009,07,23,07,48,16.90
2009,07,23,07,49,16.90
2009,07,23,07,50,17.00
2009,07,23,07,51,17.10
2009,07,23,07,52,17.00
2009,07,23,07,53,17.00
2009,07,23,07,54,17.00
2009,07,23,07,55,17.00
2009,07,23,07,56,17.00
2009,07,23,07,57,17.10
2009,07,23,07,58,17.10
2009,07,23,07,59,17.10
2009,07,23,08,00,17.10
2009,07,23,08,01,17.10
2009,07,23,08,02,17.00
2009,07,23,08,03,17.00
2009,07,23,08,04,17.00
2009,07,23,08,05,17.10
2009,07,23,08,06,17.10
2009,07,23,08,07,17.10
2009,07,23,08,08,17.20
2009,07,23,08,09,17.10
2009,07,23,08,10,17.20
2009,07,23,08,11,17.20
2009,07,23,08,12,17.20
2009,07,23,08,13,17.20
2009,07,23,08,14,17.20
2009,07,23,08,15,17.10
2009,07,23,08,16,17.10
2009,07,23,08,17,17.10
2009,07,23,08,18,17.00
2009,07,23,08,19,16.90
2009,07,23,08,20,16.90
2009,07,23,08,21,16.80
2009,07,23,08,22,16.80
2009,07,23,08,23,16.70
2009,07,23,08,24,16.70
2009,07,23,08,25,16.70
2009,07,23,08,26,16.80
2009,07,23,08,27,16.80
2009,07,23,08,28,16.90
2009,07,23,08,29,16.90
2009,07,23,08,30,16.90
2009,07,23,08,31,16.90
2009,07,23,08,32,16.90
2009,07,23,08,33,16.90
2009,07,23,08,34,16.80
2009,07,23,08,35,16.70
2009,07,23,08,36,16.70
2009,07,23,08,37,16.70
2009,07,23,08,38,16.70
2009,07,23,08,39,16.70
2009,07,23,08,40,16.70
2009,07,23,08,41,16.70
2009,07,23,08,42,16.70
2009,07,23,08,43,16.80
2009,07,23,08,44,16.80
2009,07,23,08,45,16.90
2009,07,23,08,46,16.80
2009,07,23,08,47,16.80
2009,07,23,08,48,16.80
2009,07,23,08,49,16.80
2009,07,23,08,50,16.80
2009,07,23,08,51,16.80
2009,07,23,08,52,16.80
2009,07,23,08,53,16.80
2009,07,23,08,54,16.80
2009,07,23,08,55,16.80
2009,07,23,08,56,16.80
2009,07,23,08,57,16.70
2009,07,23,08,58,16.80
2009,07,23,08,59,16.70
2009,07,23,09,00,16.70
2009,07,23,09,01,16.70
2009,07,23,09,02,16.70
2009,07,23,09,03,16.70
2009,07,23,09,04,16.70
2009,07,23,09,05,16.70
2009,07,23,09,06,16.60
2009,07,23,09,07,16.60
2009,07,23,09,08,16.50
2009,07,23,09,09,16.50
2009,07,23,09,10,16.50
2009,07,23,09,11,16.50
2009,07,23,09,12,16.60
2009,07,23,09,13,16.70
2009,07,23,09,14,16.70
2009,07,23,09,15,16.80
2009,07,23,09,16,16.80
2009,07,23,09,17,16.80
2009,07,23,09,18,16.90
2009,07,23,09,19,16.90
2009,07,23,09,20,16.90
2009,07,23,09,21,16.90
2009,07,23,09,22,16.90
2009,07,23,09,23,16.80
2009,07,23,09,24,16.90
2009,07,23,09,25,16.90
2009,07,23,09,26,16.80
2009,07,23,09,27,16.80
2009,07,23,09,28,16.80
2009,07,23,09,29,16.80
2009,07,23,09,30,16.70
2009,07,23,09,31,16.60
2009,07,23,09,32,16.60
2009,07,23,09,33,16.50
2009,07,23,09,34,16.50
2009,07,23,09,35,16.50
2009,07,23,09,36,16.50
2009,07,23,09,37,16.50
2009,07,23,09,38,16.60
2009,07,23,09,39,16.60
2009,07,23,09,40,16.60
2009,07,23,09,41,16.60
2009,07,23,09,42,16.60
2009,07,23,09,43,16.50
2009,07,23,09,44,16.50
2009,07,23,09,45,16.50
2009,07,23,09,46,16.60
2009,07,23,09,47,16.60
2009,07,23,09,48,16.80
2009,07,23,09,49,16.80
2009,07,23,09,50,16.80
2009,07,23,09,51,16.90
2009,07,23,09,52,17.00
2009,07,23,09,53,17.00
2009,07,23,09,54,17.00
2009,07,23,09,55,17.00
2009,07,23,09,56,17.00
2009,07,23,09,57,17.00
2009,07,23,09,58,17.10
2009,07,23,09,59,17.10
2009,07,23,10,00,17.20
2009,07,23,10,01,17.10
2009,07,23,10,02,17.10
2009,07,23,10,03,17.10
2009,07,23,10,04,17.20
2009,07,23,10,05,17.20
2009,07,23,10,06,17.20
2009,07,23,10,07,17.20
2009,07,23,10,08,17.20
2009,07,23,10,09,17.20
2009,07,23,10,10,17.20
2009,07,23,10,11,17.20
2009,07,23,10,12,17.20
2009,07,23,10,13,17.20
2009,07,23,10,14,17.20
2009,07,23,10,15,17.30
2009,07,23,10,16,17.30
2009,07,23,10,17,17.20
2009,07,23,10,18,17.20
2009,07,23,10,19,17.10
2009,07,23,10,20,17.10
2009,07,23,10,21,17.00
2009,07,23,10,22,17.00
2009,07,23,10,23,17.00
2009,07,23,10,24,17.00
2009,07,23,10,25,17.10
2009,07,23,10,26,17.10
2009,07,23,10,27,17.10
2009,07,23,10,28,17.10
2009,07,23,10,29,17.20
2009,07,23,10,30,17.20
2009,07,23,10,31,17.30
2009,07,23,10,32,17.30
2009,07,23,10,33,17.30
2009,07,23,10,34,17.40
2009,07,23,10,35,17.50
2009,07,23,10,36,17.50
2009,07,23,10,37,17.60
2009,07,23,10,38,17.50
2009,07,23,10,39,17.50
2009,07,23,10,40,17.40
2009,07,23,10,41,17.50
2009,07,23,10,42,17.50
2009,07,23,10,43,17.50
2009,07,23,10,44,17.50
2009,07,23,10,45,17.50
2009,07,23,10,46,17.50
2009,07,23,10,47,17.40
2009,07,23,10,48,17.30
2009,07,23,10,49,17.20
2009,07,23,10,50,17.10
2009,07,23,10,51,17.10
2009,07,23,10,52,17.20
2009,07,23,10,53,17.10
2009,07,23,10,54,17.00
2009,07,23,10,55,16.90
2009,07,23,10,56,16.80
2009,07,23,10,57,16.90
2009,07,23,10,58,17.00
2009,07,23,10,59,17.10
2009,07,23,11,00,17.00
2009,07,23,11,01,16.90
2009,07,23,11,02,16.90
2009,07,23,11,03,16.90
2009,07,23,11,04,16.90
2009,07,23,11,05,16.90
2009,07,23,11,06,17.00
2009,07,23,11,07,17.10
2009,07,23,11,08,17.10
2009,07,23,11,09,17.20
2009,07,23,11,10,17.20
2009,07,23,11,11,17.30
2009,07,23,11,12,17.30
2009,07,23,11,13,17.30
2009,07,23,11,14,17.30
2009,07,23,11,15,17.30
2009,07,23,11,16,17.30
2009,07,23,11,17,17.40
2009,07,23,11,18,17.40
2009,07,23,11,19,17.30
2009,07,23,11,20,17.20
2009,07,23,11,21,17.20
2009,07,23,11,22,17.20
2009,07,23,11,23,17.10
2009,07,23,11,24,17.10
2009,07,23,11,25,17.00
2009,07,23,11,26,17.00
2009,07,23,11,27,17.10
2009,07,23,11,28,17.10
2009,07,23,11,29,17.10
2009,07,23,11,30,17.10
2009,07,23,11,31,17.10
2009,07,23,11,32,17.10
2009,07,23,11,33,17.10
2009,07,23,11,34,17.10
2009,07,23,11,35,17.10
2009,07,23,11,36,17.10
2009,07,23,11,37,17.00
2009,07,23,11,38,17.00
2009,07,23,11,39,17.10
2009,07,23,11,40,17.20
2009,07,23,11,41,17.30
2009,07,23,11,42,17.30
2009,07,23,11,43,17.30
2009,07,23,11,44,17.20
2009,07,23,11,45,17.20
2009,07,23,11,46,17.30
2009,07,23,11,47,17.30
2009,07,23,11,48,17.30
2009,07,23,11,49,17.40
2009,07,23,11,50,17.40
2009,07,23,11,51,17.40
2009,07,23,11,52,17.40
2009,07,23,11,53,17.50
2009,07,23,11,54,17.60
2009,07,23,11,55,17.60
2009,07,23,11,56,17.60
2009,07,23,11,57,17.50
2009,07,23,11,58,17.50
2009,07,23,11,59,17.40
2009,07,23,12,00,17.40
2009,07,23,12,01,17.40
2009,07,23,12,02,17.40
2009,07,23,12,03,17.40
2009,07,23,12,04,17.50
2009,07,23,12,05,17.50
2009,07,23,12,06,17.50
2009,07,23,12,07,17.50
2009,07,23,12,08,17.60
2009,07,23,12,09,17.60
2009,07,23,12,10,17.70
2009,07,23,12,11,17.60
2009,07,23,12,12,17.40
2009,07,23,12,13,17.40
2009,07,23,12,14,17.30
2009,07,23,12,15,17.40
2009,07,23,12,16,17.40
2009,07,23,12,17,17.40
2009,07,23,12,18,17.40
2009,07,23,12,19,17.40
2009,07,23,12,20,17.40
2009,07,23,12,21,17.50
2009,07,23,12,22,17.60
2009,07,23,12,23,17.70
2009,07,23,12,24,17.80
2009,07,23,12,25,17.90
2009,07,23,12,26,18.00
2009,07,23,12,27,18.00
2009,07,23,12,28,18.00
2009,07,23,12,29,17.90
2009,07,23,12,30,17.80
2009,07,23,12,31,17.80
2009,07,23,12,32,17.80
2009,07,23,12,33,17.80
2009,07,23,12,34,17.80
2009,07,23,12,35,17.80
2009,07,23,12,36,17.90
2009,07,23,12,37,18.00
2009,07,23,12,38,18.10
2009,07,23,12,39,18.10
2009,07,23,12,40,18.10
2009,07,23,12,41,18.00
2009,07,23,12,42,17.90
2009,07,23,12,43,17.90
2009,07,23,12,44,17.90
2009,07,23,12,45,17.90
2009,07,23,12,46,18.00
2009,07,23,12,47,18.00
2009,07,23,12,48,17.90
2009,07,23,12,49,17.90
2009,07,23,12,50,17.90
2009,07,23,12,51,17.80
2009,07,23,12,52,17.80
2009,07,23,12,53,17.90
2009,07,23,12,54,17.90
2009,07,23,12,55,17.90
2009,07,23,12,56,17.90
2009,07,23,12,57,17.90
2009,07,23,12,58,17.90
2009,07,23,12,59,18.00
2009,07,23,13,00,18.10
2009,07,23,13,01,18.00
2009,07,23,13,02,18.00
2009,07,23,13,03,18.00
2009,07,23,13,04,18.00
2009,07,23,13,05,18.10
2009,07,23,13,06,18.10
2009,07,23,13,07,18.10
2009,07,23,13,08,18.10
2009,07,23,13,09,18.20
2009,07,23,13,10,18.20
2009,07,23,13,11,18.30
2009,07,23,13,12,18.30
2009,07,23,13,13,18.30
2009,07,23,13,14,18.30
2009,07,23,13,15,18.30
2009,07,23,13,16,18.30
2009,07,23,13,17,18.30
2009,07,23,13,18,18.30
2009,07,23,13,19,18.40
2009,07,23,13,20,18.40
2009,07,23,13,21,18.30
2009,07,23,13,22,18.40
2009,07,23,13,23,18.30
2009,07,23,13,24,18.20
2009,07,23,13,25,18.10
2009,07,23,13,26,18.10
2009,07,23,13,27,18.10
2009,07,23,13,28,18.00
2009,07,23,13,29,18.00
2009,07,23,13,30,18.00
2009,07,23,13,31,18.00
2009,07,23,13,32,17.90
2009,07,23,13,33,17.90
2009,07,23,13,34,18.00
2009,07,23,13,35,18.00
2009,07,23,13,36,18.10
2009,07,23,13,37,18.20
2009,07,23,13,38,18.20
2009,07,23,13,39,18.10
2009,07,23,13,40,18.20
2009,07,23,13,41,18.30
2009,07,23,13,42,18.30
2009,07,23,13,43,18.50
2009,07,23,13,44,18.60
2009,07,23,13,45,18.60
2009,07,23,13,46,18.70
2009,07,23,13,47,18.70
2009,07,23,13,48,18.70
2009,07,23,13,49,18.70
2009,07,23,13,50,18.70
2009,07,23,13,51,18.80
2009,07,23,13,52,18.80
2009,07,23,13,53,18.80
2009,07,23,13,54,18.70
2009,07,23,13,55,18.70
2009,07,23,13,56,18.80
2009,07,23,13,57,18.80
2009,07,23,13,58,18.90
2009,07,23,13,59,18.90
2009,07,23,14,00,19.00
2009,07,23,14,01,19.00
2009,07,23,14,02,19.10
2009,07,23,14,03,19.10
2009,07,23,14,04,19.10
2009,07,23,14,05,19.10
2009,07,23,14,06,19.30
2009,07,23,14,07,19.40
2009,07,23,14,08,19.50
2009,07,23,14,09,19.60
2009,07,23,14,10,19.70
2009,07,23,14,11,19.70
2009,07,23,14,12,19.80
2009,07,23,14,13,19.70
2009,07,23,14,14,19.70
2009,07,23,14,15,19.70
2009,07,23,14,16,19.60
2009,07,23,14,17,19.60
2009,07,23,14,18,19.50
2009,07,23,14,19,19.50
2009,07,23,14,20,19.50
2009,07,23,14,21,19.60
2009,07,23,14,22,19.70
2009,07,23,14,23,19.80
2009,07,23,14,24,19.90
2009,07,23,14,25,20.00
2009,07,23,14,26,20.00
2009,07,23,14,27,20.00
2009,07,23,14,28,19.90
2009,07,23,14,29,19.90
2009,07,23,14,30,19.80
2009,07,23,14,31,19.80
2009,07,23,14,32,19.70
2009,07,23,14,33,19.60
2009,07,23,14,34,19.40
2009,07,23,14,35,19.30
2009,07,23,14,36,19.20
2009,07,23,14,37,19.10
2009,07,23,14,38,19.00
2009,07,23,14,39,18.90
2009,07,23,14,40,18.90
2009,07,23,14,41,19.00
2009,07,23,14,42,19.10
2009,07,23,14,43,19.20
2009,07,23,14,44,19.30
2009,07,23,14,45,19.20
2009,07,23,14,46,19.20
2009,07,23,14,47,19.10
2009,07,23,14,48,19.00
2009,07,23,14,49,19.00
2009,07,23,14,50,19.10
2009,07,23,14,51,19.00
2009,07,23,14,52,19.00
2009,07,23,14,53,19.00
2009,07,23,14,54,19.00
2009,07,23,14,55,19.10
2009,07,23,14,56,19.20
2009,07,23,14,57,19.20
2009,07,23,14,58,19.20
2009,07,23,14,59,19.40
2009,07,23,15,00,19.50
2009,07,23,15,01,19.70
2009,07,23,15,02,19.90
2009,07,23,15,03,20.00
2009,07,23,15,04,20.10
2009,07,23,15,05,20.30
2009,07,23,15,06,20.40
2009,07,23,15,07,20.60
2009,07,23,15,08,20.90
2009,07,23,15,09,21.10
2009,07,23,15,10,21.40
2009,07,23,15,11,21.60
2009,07,23,15,12,21.80
2009,07,23,15,13,21.90
2009,07,23,15,14,22.10
2009,07,23,15,15,22.20
2009,07,23,15,16,22.20
2009,07,23,15,17,22.20
2009,07,23,15,18,22.10
2009,07,23,15,19,22.00
2009,07,23,15,20,21.90
2009,07,23,15,21,21.70
2009,07,23,15,22,21.40
2009,07,23,15,23,21.20
2009,07,23,15,24,21.10
2009,07,23,15,25,21.10
2009,07,23,15,26,21.00
2009,07,23,15,27,21.00
2009,07,23,15,28,21.10
2009,07,23,15,29,21.10
2009,07,23,15,30,21.10
2009,07,23,15,31,21.20
2009,07,23,15,32,21.20
2009,07,23,15,33,21.30
2009,07,23,15,34,21.50
2009,07,23,15,35,21.80
2009,07,23,15,36,21.90
2009,07,23,15,37,22.10
2009,07,23,15,38,22.10
2009,07,23,15,39,22.00
2009,07,23,15,40,21.90
2009,07,23,15,41,21.80
2009,07,23,15,42,21.60
2009,07,23,15,43,21.50
2009,07,23,15,44,21.40
2009,07,23,15,45,21.30
2009,07,23,15,46,21.30
2009,07,23,15,47,21.10
2009,07,23,15,48,20.90
2009,07,23,15,49,20.70
2009,07,23,15,50,20.60
2009,07,23,15,51,20.60
2009,07,23,15,52,20.60
2009,07,23,15,53,20.60
2009,07,23,15,54,20.50
2009,07,23,15,55,20.50
2009,07,23,15,56,20.50
2009,07,23,15,57,20.50
2009,07,23,15,58,20.40
2009,07,23,15,59,20.40
2009,07,23,16,00,20.40
2009,07,23,16,01,20.50
2009,07,23,16,02,20.40
2009,07,23,16,03,20.30
2009,07,23,16,04,20.20
2009,07,23,16,05,20.20
2009,07,23,16,06,20.30
2009,07,23,16,07,20.30
2009,07,23,16,08,20.40
2009,07,23,16,09,20.40
2009,07,23,16,10,20.30
2009,07,23,16,11,20.20
2009,07,23,16,12,20.10
2009,07,23,16,13,20.00
2009,07,23,16,14,19.80
2009,07,23,16,15,19.70
2009,07,23,16,16,19.70
2009,07,23,16,17,19.70
2009,07,23,16,18,19.70
2009,07,23,16,19,19.60
2009,07,23,16,20,19.50
2009,07,23,16,21,19.40
2009,07,23,16,22,19.40
2009,07,23,16,23,19.40
2009,07,23,16,24,19.30
2009,07,23,16,25,19.30
2009,07,23,16,26,19.20
2009,07,23,16,27,19.20
2009,07,23,16,28,19.20
2009,07,23,16,29,19.20
2009,07,23,16,30,19.30
2009,07,23,16,31,19.40
2009,07,23,16,32,19.40
2009,07,23,16,33,19.50
2009,07,23,16,34,19.50
2009,07,23,16,35,19.40
2009,07,23,16,36,19.20
2009,07,23,16,37,19.20
2009,07,23,16,38,19.20
2009,07,23,16,39,19.30
2009,07,23,16,40,19.30
2009,07,23,16,41,19.30
2009,07,23,16,42,19.30
2009,07,23,16,43,19.30
2009,07,23,16,44,19.20
2009,07,23,16,45,19.30
2009,07,23,16,46,19.40
2009,07,23,16,47,19.50
2009,07,23,16,48,19.60
2009,07,23,16,49,19.60
2009,07,23,16,50,19.60
2009,07,23,16,51,19.60
2009,07,23,16,52,19.60
2009,07,23,16,53,19.60
2009,07,23,16,54,19.60
2009,07,23,16,55,19.60
2009,07,23,16,56,19.70
2009,07,23,16,57,19.70
2009,07,23,16,58,19.60
2009,07,23,16,59,19.60
2009,07,23,17,00,19.60
2009,07,23,17,01,19.60
2009,07,23,17,02,19.70
2009,07,23,17,03,19.70
2009,07,23,17,04,19.80
2009,07,23,17,05,19.70
2009,07,23,17,06,19.60
2009,07,23,17,07,19.50
2009,07,23,17,08,19.40
2009,07,23,17,09,19.30
2009,07,23,17,10,19.20
2009,07,23,17,11,19.30
2009,07,23,17,12,19.20
2009,07,23,17,13,19.30
2009,07,23,17,14,19.30
2009,07,23,17,15,19.30
2009,07,23,17,16,19.30
2009,07,23,17,17,19.30
2009,07,23,17,18,19.20
2009,07,23,17,19,19.20